This is the latest recevied weather packets stored in our database for station/object N6SPP. If no packets are shown the sender has not sent any weather packets the latest 10 day(s).
| Time | Temp. | Humidity | Pressure | Rain* | Wind** | Luminosity | Snow |
|---|---|---|---|---|---|---|---|
| 1777343332 | 15° C | 64% | 1019.1 hPa | 0 mm | - | 19 W/m² | - |
| 1777343030 | 15.56° C | 63% | 1019.1 hPa | 0 mm | - | 23 W/m² | - |
| 1777342722 | 15.56° C | 62% | 1019.2 hPa | 0 mm | - | 27 W/m² | - |
| 1777342417 | 16.11° C | 60% | 1019.1 hPa | 0 mm | - | 33 W/m² | - |
| 1777342115 | 16.67° C | 59% | 1019 hPa | 0 mm | - | 38 W/m² | - |
| 1777341811 | 16.67° C | 57% | 1018.8 hPa | 0 mm | - | 43 W/m² | - |
| 1777341508 | 16.67° C | 56% | 1019.1 hPa | 0 mm | - | 44 W/m² | - |
| 1777341204 | 16.67° C | 55% | 1019 hPa | 0 mm | - | 57 W/m² | - |
| 1777340901 | 17.22° C | 57% | 1018.8 hPa | 0 mm | - | 44 W/m² | - |
| 1777340599 | 17.22° C | 57% | 1018.9 hPa | 0 mm | - | 71 W/m² | - |
| 1777340296 | 17.22° C | 57% | 1018.7 hPa | 0 mm | - | 78 W/m² | - |
| 1777339993 | 17.78° C | 56% | 1018.6 hPa | 0 mm | - | 86 W/m² | - |
| 1777339690 | 17.22° C | 56% | 1018.8 hPa | 0 mm | - | 92 W/m² | - |
| 1777339388 | 17.78° C | 56% | 1018.8 hPa | 0 mm | - | 103 W/m² | - |
| 1777339086 | 17.78° C | 56% | 1018.7 hPa | 0 mm | - | 120 W/m² | - |
| 1777338782 | 17.78° C | 56% | 1018.6 hPa | 0 mm | - | 131 W/m² | - |
| 1777338480 | 18.33° C | 55% | 1018.7 hPa | 0 mm | - | 147 W/m² | - |
| 1777338177 | 18.89° C | 53% | 1018.4 hPa | 0 mm | - | 160 W/m² | - |
| 1777337872 | 18.33° C | 54% | 1018.6 hPa | 0 mm | - | 170 W/m² | - |
| 1777337570 | 18.33° C | 53% | 1018.6 hPa | 0 mm | - | 67 W/m² | - |
| 1777337267 | 18.89° C | 53% | 1018.7 hPa | 0 mm | - | 129 W/m² | - |
| 1777336965 | 18.33° C | 53% | 1018.7 hPa | 0 mm | - | 218 W/m² | - |
| 1777336664 | 18.89° C | 53% | 1018.6 hPa | 0 mm | - | 233 W/m² | - |
| 1777336362 | 18.89° C | 53% | 1018.7 hPa | 0 mm | - | 223 W/m² | - |
| 1777336058 | 18.33° C | 54% | 1018.6 hPa | 0 mm | - | 260 W/m² | - |
* Rain latest hour (hover to see other rain measurements)
** Current wind speed in m/s (hover to see current wind gust speed)